Location: Poigny-la-Forêt
(48.6876°N, 1.7701°E)
Time: 03:35:57
(UTC+02:00)

ISS - Pass Details

Date: 21 May 2019
Orbit: 408 x 418 km, 51.6° (Epoch: 17 June)

Event Time Altitude Azimuth Distance (km) Brightness Sun altitude
Rises 00:13:30 0° 266° (W) 2,355 0.3 -18.0°
Reaches altitude 10° 00:15:38 10° 271° (W) 1,495 -0.7 -18.1°
Maximum altitude 00:18:56 55° 350° (N) 511 -3.0 -18.3°
Drops below altitude 10° 00:22:15 10° 70° (ENE) 1,503 -1.0 -18.5°
Enters shadow 00:25:37 -4° 76° (ENE) 2,869 0.4 -18.7°
